This demonstration page uses our WeatherBlox Daily Observations layout. Learn more.

40.92945, -100.16068

Hourly Observations for September 20, 2018

Temp ( °F °C ) Dew Point ( °F °C ) Humidity (%) Winds ( mph kmh ) Pressure ( in mb ) Visibility ( mi km ) Precip ( " mm )
12:15 am 00:15 Cloudy with Nearby Thunderstorms 79 26.3 63 17 57 57 Calm 29.62 1003 10 16.0934 0 0
12:35 am 00:35 Cloudy 79 26.2 63 17 57 57 ESE 8 13 29.62 1003 10 16.0934 0 0
12:55 am 00:55 Cloudy with Nearby Thunderstorms 79 26.1 63 17.1 58 58 ESE 7 11 29.62 1003 10 16.0934 0 0
1:15 am 01:15 Cloudy with Nearby Thunderstorms 78 25.7 63 17.2 59 59 SE 6 9 29.62 1003 10 16.0934 0 0
1:35 am 01:35 Mostly Cloudy 78 25.5 63 17.2 60 60 SSE 9 15 29.59 1002 10 16.0934 0 0
1:55 am 01:55 Mostly Cloudy 77 25.1 63 17.3 62 62 NW 9 15 29.62 1003 10 16.0934 0 0
2:15 am 02:15 Cloudy 78 25.5 63 17.1 60 60 S 7 11 29.59 1002 10 16.0934 0 0
2:35 am 02:35 Mostly Cloudy 77 25.2 63 17.1 61 61 S 3 6 29.62 1003 10 16.0934 0 0
2:55 am 02:55 Mostly Cloudy 76 24.6 63 17.2 64 64 Calm 29.62 1003 10 16.0934 0 0
3:15 am 03:15 Mostly Cloudy 75 24 63 17.2 66 66 SSE 6 9 29.62 1003 10 16.0934 0 0
3:35 am 03:35 Mostly Cloudy 75 23.9 63 17.3 67 67 SSE 6 9 29.62 1003 10 16.0934 0 0
3:55 am 03:55 Partly Cloudy 74 23.5 63 17.3 68 68 SE 6 9 29.62 1003 10 16.0934 0 0
4:15 am 04:15 Clear 73 22.9 63 17.2 70 70 SE 5 7 29.62 1003 10 16.0934 0 0
4:35 am 04:35 Partly Cloudy 72 22 63 17.2 74 74 ESE 7 11 29.62 1003 10 16.0934 0 0
4:55 am 04:55 Partly Cloudy 72 22 63 17.3 75 75 E 6 9 29.62 1003 10 16.0934 0 0
5:15 am 05:15 Mostly Cloudy 70 21 63 17.2 79 79 ESE 5 7 29.59 1002 10 16.0934 0 0
5:35 am 05:35 Mostly Cloudy 70 21.3 63 17.3 78 78 ESE 7 11 29.59 1002 10 16.0934 0 0
5:55 am 05:55 Partly Cloudy 70 21.2 63 17.2 78 78 ESE 7 11 29.59 1002 10 16.0934 0 0
6:15 am 06:15 Clear 69 20.4 63 17 81 81 NE 3 6 29.59 1002 10 16.0934 0 0
6:35 am 06:35 Clear 68 20.2 63 17 82 82 SE 6 9 29.62 1003 10 16.0934 0 0
6:55 am 06:55 Clear 69 20.6 63 17.1 80 80 SSE 7 11 29.59 1002 10 16.0934 0 0
7:15 am 07:15 Clear 69 20.3 63 17.1 82 82 SSE 8 13 29.59 1002 10 16.0934 0 0
7:35 am 07:35 Sunny 68 20.1 63 17.1 83 83 SSE 6 9 29.62 1003 10 16.0934 0 0
7:55 am 07:55 Sunny 68 20 63 17 83 83 SSW 5 7 29.65 1004 10 16.0934 0 0
8:15 am 08:15 Sunny 69 20.5 64 17.5 83 83 W 5 7 29.65 1004 10 16.0934 0 0
8:35 am 08:35 Sunny 70 21 64 17.7 82 82 WSW 3 6 29.62 1003 10 16.0934 0 0
8:55 am 08:55 Sunny 71 21.6 65 18.1 81 81 SSW 9 15 29.62 1003 10 16.0934 0 0
9:15 am 09:15 Sunny 72 22.4 65 18.2 77 77 SSW 8 13 29.62 1003 10 16.0934 0 0
9:35 am 09:35 Sunny 73 23 65 18.1 74 74 SW 13 20 29.62 1003 10 16.0934 0 0
9:55 am 09:55 Partly Cloudy 74 23.5 65 18.1 72 72 WSW 12 19 29.62 1003 10 16.0934 0 0
10:15 am 10:15 Mostly Cloudy 72 22.2 64 17.8 76 76 WSW 12 19 29.65 1004 10 16.0934 0 0
10:35 am 10:35 Cloudy 71 21.4 65 18.1 82 82 W 9 15 29.65 1004 10 16.0934 0 0
10:55 am 10:55 Cloudy 72 22 64 17.7 77 77 WNW 10 17 29.65 1004 10 16.0934 0 0
11:15 am 11:15 Partly Cloudy 74 23.4 64 18 72 72 W 8 13 29.62 1003 10 16.0934 0 0
11:35 am 11:35 Mostly Cloudy 76 24.5 65 18.1 68 68 WNW 12 19 29.62 1003 10 16.0934 0 0
12:15 pm 12:15 Cloudy 74 23.4 65 18.1 72 72 WNW 13 20 29.65 1004 10 16.0934 0 0
12:35 pm 12:35 Cloudy 73 23 65 18.1 74 74 W 10 17 29.65 1004 7 11.26538 0 0
12:55 pm 12:55 Cloudy 74 23.1 64 18 73 73 W 13 20 29.68 1005 7 11.26538 0 0
1:15 pm 13:15 Mostly Cloudy 75 24 65 18.4 71 71 WNW 12 19 29.65 1004 10 16.0934 0 0
1:35 pm 13:35 Partly Cloudy 76 24.6 65 18.3 68 68 NNW 10 17 29.62 1003 10 16.0934 0 0
1:55 pm 13:55 Mostly Cloudy 75 24 64 18 69 69 Calm 29.65 1004 10 16.0934 0 0
2:15 pm 14:15 Mostly Cloudy 76 24.4 64 18 68 68 WNW 10 17 29.65 1004 7 11.26538 0 0
2:35 pm 14:35 Cloudy 75 24 64 17.7 68 68 W 3 6 29.65 1004 10 16.0934 0 0
2:55 pm 14:55 Cloudy 75 23.7 64 17.7 69 69 Calm 29.62 1003 10 16.0934 0 0
3:15 pm 15:15 Cloudy with Light Rain 75 23.7 65 18.5 73 73 SE 3 6 29.62 1003 7 11.26538 0.01 0.254
3:35 pm 15:35 Cloudy with Light Rain 74 23.4 66 18.9 76 76 S 6 9 29.65 1004 10 16.0934 0.01 0.254
3:55 pm 15:55 Cloudy with Light Rain 74 23.2 66 18.7 76 76 SW 6 9 29.65 1004 10 16.0934 0.01 0.254
4:15 pm 16:15 Cloudy with Light Rain 73 22.7 66 19 80 80 SSW 5 7 29.65 1004 10 16.0934 0.02 0.508
4:35 pm 16:35 Cloudy with Light Drizzle 73 22.5 67 19.6 84 84 WNW 8 13 29.65 1004 10 16.0934 0.02 0.508
4:55 pm 16:55 Mostly Cloudy 72 22 67 19.3 85 85 Calm 29.65 1004 10 16.0934 0.02 0.508
5:15 pm 17:15 Mostly Cloudy 71 21.8 67 19.3 86 86 NW 7 11 29.65 1004 10 16.0934 0 0
5:35 pm 17:35 Cloudy 71 21.5 66 19 86 86 NW 7 11 29.65 1004 10 16.0934 0 0
5:55 pm 17:55 Partly Cloudy 71 21.7 66 19.1 85 85 WNW 5 7 29.65 1004 10 16.0934 0 0
6:15 pm 18:15 Partly Cloudy 72 22 66 19 83 83 W 3 6 29.65 1004 10 16.0934 0 0
6:35 pm 18:35 Partly Cloudy 73 22.6 67 19.2 81 81 WNW 7 11 29.68 1005 10 16.0934 0 0
6:55 pm 18:55 Partly Cloudy 73 22.6 65 18.6 78 78 WNW 10 17 29.71 1006 10 16.0934 0 0
7:15 pm 19:15 Mostly Cloudy 72 22.2 65 18.6 80 80 W 7 11 29.71 1006 10 16.0934 0 0
7:35 pm 19:35 Cloudy 71 21.8 66 18.7 83 83 SW 5 7 29.71 1006 10 16.0934 0 0
7:55 pm 19:55 Mostly Cloudy 71 21.5 65 18.5 83 83 SSW 10 17 29.71 1006 10 16.0934 0 0
8:15 pm 20:15 Partly Cloudy 71 21.5 65 18.2 82 82 S 12 19 29.68 1005 10 16.0934 0 0
8:35 pm 20:35 Partly Cloudy 71 21.7 65 18.2 81 81 N 16 26 29.71 1006 10 16.0934 0 0
8:55 pm 20:55 Partly Cloudy 70 20.9 63 17.1 79 79 N 18 30 29.8 1009 10 16.0934 0 0
9:15 pm 21:15 Mostly Cloudy 68 19.8 60 15.8 78 78 NNW 12 19 29.8 1009 10 16.0934 0 0
9:35 pm 21:35 Partly Cloudy 67 19.4 59 14.8 75 75 NNW 12 19 29.83 1010 10 16.0934 0 0
9:55 pm 21:55 Clear 66 19 58 14.4 75 75 NNW 8 13 29.83 1010 10 16.0934 0 0
10:15 pm 22:15 Clear 65 18.5 57 14.1 76 76 NW 5 7 29.88 1012 10 16.0934 0 0
10:35 pm 22:35 Partly Cloudy 64 17.7 57 14 79 79 NW 8 13 29.91 1013 10 16.0934 0 0
10:55 pm 22:55 Partly Cloudy 64 17.5 57 14 80 80 NW 7 11 29.94 1014 10 16.0934 0 0
11:15 pm 23:15 Clear 64 17.5 56 13.5 78 78 NNW 9 15 29.94 1014 10 16.0934 0 0
11:35 pm 23:35 Clear 62 16.7 56 13.5 82 82 N 5 7 30 1016 10 16.0934 0 0
11:55 pm 23:55 Clear 62 16.5 54 12.2 76 76 N 15 24 30 1016 10 16.0934 0 0

Powered by AerisWeather